User: anonymous   Login
Location: ShareBrained
(45.5589°N, 122.6491°W)
Time: 05:10:11
(UTC-07:00)
Language:

NOAA 19 - Orbit

View from above orbital plane
View from above orbital plane
View from above satellite
View from above satellite

Ground track
Ground track

The orbit data is extracted from the following two-line orbital elements,

1 33591U 09005A   24206.19237734  .00000444  00000-0  26198-3 0  9996
2 33591  99.0451 262.3795 0013845 183.7530 176.3540 14.13056054796853
Epoch (UTC): 24 July 2024 04:37:01
Eccentricity: 0.0013845
inclination: 99.0451°
perigee height: 839 km
apogee height: 859 km
right ascension of ascending node: 262.3795°
argument of perigee: 183.7530°
revolutions per day: 14.13056054
mean anomaly at epoch: 176.3540°
orbit number at epoch: 79685

The dashed part of the orbit path shows where the satellite is in the earth's shadow,  

DLR